Hourly Data Report for January 11, 2022

BANCROFT AUTO
ONTARIO
Current Station Operator: ECCC - MSC

45°04'17.000" N
77°52'44.000" W
330.70 m
616I001
71294
WRK

Download Data

Hourly Data (January 2022)
Hourly Data Report for January 11, 2022
TIME
LST
Temp Definition
°C
Dew Point Definition
°C
Rel Hum Definition
%
Precip. Amount Definition
mm

Wind Dir Definition
10's deg

Wind Spd Definition
km/h
Visibility Definition
km
Stn Press Definition
kPa
Hmdx Definition


Wind Chill Definition


Weather Definition


00:00 -24.9 -30.6 59 0.0 34 13   98.70   -34 LegendNANA
01:00 -26.1 -31.1 63 0.0 35 5   98.80   -31 LegendNANA
02:00 -26.8 -31.3 66 0.0 35 5   98.87   -32 LegendNANA
03:00 -28.0 -31.8 70 0.0 32 3   98.97   -31 LegendNANA
04:00 -30.0 -32.7 77 0.0 2 1   99.03   -31 LegendNANA
05:00 -30.5 -33.1 78 0.0 32 2   99.02   -33 LegendNANA
06:00 -32.4 -35.4 75 0.0   0   99.12     LegendNANA
07:00 -32.5 -35.5 75 0.0 0 1   99.18   -34 LegendNANA
08:00 -33.5 -36.6 73 0.0   0   99.22     LegendNANA
09:00 -30.9 -33.7 76 0.0   0   99.20     LegendNANA
10:00 -27.5 -31.0 72 0.0 0 1   99.22   -29 LegendNANA
11:00 -23.2 -32.0 44 0.0 18 2   99.19   -25 LegendNANA
12:00 -21.4 -31.1 41 0.0 19 2   99.09   -23 LegendNANA
13:00 -20.2 -30.6 39 0.0 18 4   98.95   -24 LegendNANA
14:00 -19.1 -27.6 47 0.0 19 6   98.90   -24 LegendNANA
15:00 -18.4 -25.8 53 0.0 22 6   98.84   -23 LegendNANA
16:00 -18.8 -25.4 56 0.0 19 8   98.78   -25 LegendNANA
17:00 -19.0 -24.8 60 0.0 17 8   98.63   -25 LegendNANA
18:00 -19.0 -24.4 63 0.0 18 5   98.57   -23 LegendNANA
19:00 -18.9 -23.7 66 0.0 18 7   98.34   -24 LegendNANA
20:00 -18.2 -22.1 72 0.0 17 8   98.07   -24 LegendNANA
21:00 -16.8 -19.7 78 0.0 17 8   97.84   -22 LegendNANA
22:00 -15.4 -17.7 82 0.0 17 8   97.66   -21 LegendNANA
23:00 -13.6 -15.6 85 0.0 17 5   97.53   -17 LegendNANA

Notes on Data Quality.

Legend

  • E = Estimated
  • M = Missing
  • NA = Not Available*
  • [empty] = Indicates an unobserved value
Date modified: